Weather History for Lexington, NE

Change the Weather History Date:

Sunday, January 6, 2013

  Actual Average Record
Temperature  
Mean Temperature 26 °F -  
Max Temperature 38 °F 37 °F 62 °F (2006)
Min Temperature 13 °F 12 °F -25 °F (2004)
Degree Days  
Heating Degree Days 40    
Moisture  
Dew Point 18 °F    
Average Humidity 75    
Maximum Humidity 89    
Minimum Humidity 48    
Precipitation  
Precipitation 0.00 in - - ()
Sea Level Pressure  
Sea Level Pressure 30.18 in    
Wind  
Wind Speed 9 mph (SW)    
Max Wind Speed 17 mph    
Max Gust Speed -    
Visibility 10 miles    
Events      
Averages and records for this station are not official NWS values.
T = Trace of Precipitation, MM = Missing Value Source: NWS Daily Summary

Daily Weather History Graph

Daily Weather History Graph

Search for Another Location

Airport:

Trip Planner

Search our weather history database for the weather conditions in past years. The results will help you decide how hot, cold, wet, or windy it might be!

Date:

Astronomy

Jan. 06, 2013 Rise Set
Actual Time 8:03 AM CST 5:27 PM CST
Civil Twilight 7:32 AM CST 5:57 PM CST
Nautical Twilight 6:58 AM CST 6:31 PM CST
Astronomical Twilight 6:25 AM CST 7:05 PM CST
Moon 2:18 AM CST (1/6) 12:56 PM CST (1/6)
Length of Visible Light 10h 24m
Length of Day
9h 23m
Waning Crescent, 33% of the Moon is Illuminated
Jan 6
Waning Crescent
Jan 11
New
Jan 18
First Quarter
Jan 26
Full
Feb 3
Last Quarter

Hourly Weather History & Observations

Time (CST) Temp. Windchill Dew Point Humidity Pressure Visibility Wind Dir Wind Speed Gust Speed Precip Events Conditions
12:15 AM 21.6 °F 11.3 °F 18.1 °F 87% 30.26 in 10.0 mi West 9.2 mph - N/A   Clear
12:35 AM 21.9 °F 11.7 °F 18.0 °F 85% 30.27 in 10.0 mi WNW 9.2 mph - N/A   Clear
12:55 AM 21.6 °F 12.1 °F 18.5 °F 88% 30.26 in 10.0 mi WNW 8.1 mph - N/A   Clear
1:15 AM 22.3 °F 16.1 °F 18.1 °F 84% 30.26 in 10.0 mi NW 4.6 mph - N/A   Clear
1:35 AM 20.1 °F 9.5 °F 16.5 °F 86% 30.26 in 10.0 mi WNW 9.2 mph - N/A   Clear
1:55 AM 19.9 °F 9.3 °F 16.3 °F 86% 30.25 in 10.0 mi WNW 9.2 mph - N/A   Clear
2:15 AM 17.8 °F 7.5 °F 14.4 °F 86% 30.25 in 10.0 mi WNW 8.1 mph - N/A   Clear
2:35 AM 17.6 °F 5.7 °F 14.9 °F 89% 30.26 in 10.0 mi NW 10.4 mph - N/A   Clear
2:55 AM 16.7 °F 8.3 °F 13.8 °F 88% 30.26 in 10.0 mi NW 5.8 mph - N/A   Clear
3:35 AM 16.9 °F 4.8 °F 14.0 °F 88% 30.25 in 10.0 mi NW 10.4 mph - N/A   Clear
4:15 AM 14.9 °F 2.3 °F 11.8 °F 88% 30.25 in 10.0 mi WNW 10.4 mph - N/A   Clear
4:35 AM 15.6 °F 2.5 °F 12.4 °F 87% 30.25 in 10.0 mi WNW 11.5 mph - N/A   Clear
4:55 AM 15.3 °F 2.0 °F 12.4 °F 88% 30.26 in 10.0 mi WNW 11.5 mph - N/A   Clear
5:15 AM 15.4 °F 2.3 °F 12.4 °F 88% 30.25 in 10.0 mi WNW 11.5 mph - N/A   Clear
5:35 AM 14.7 °F 0.7 °F 11.5 °F 87% 30.26 in 10.0 mi WNW 12.7 mph - N/A   Clear
5:55 AM 14.2 °F 1.4 °F 11.1 °F 88% 30.26 in 10.0 mi WNW 10.4 mph - N/A   Clear
6:15 AM 16.2 °F 3.2 °F 12.9 °F 87% 30.26 in 10.0 mi NW 11.5 mph - N/A   Clear
6:35 AM 16.2 °F 4.7 °F 12.4 °F 85% 30.27 in 10.0 mi WNW 9.2 mph - N/A   Clear
6:55 AM 16.0 °F 5.3 °F 12.4 °F 86% 30.27 in 10.0 mi WNW 8.1 mph - N/A   Clear
7:15 AM 16.3 °F 4.9 °F 12.4 °F 84% 30.28 in 10.0 mi WNW 9.2 mph - N/A   Clear
7:35 AM 15.1 °F 4.2 °F 11.1 °F 84% 30.28 in 10.0 mi WNW 8.1 mph - N/A   Clear
7:55 AM 13.6 °F 0.7 °F 10.2 °F 86% 30.28 in 10.0 mi WNW 10.4 mph - N/A   Clear
8:15 AM 13.6 °F 1.6 °F 10.0 °F 86% 30.28 in 10.0 mi WNW 9.2 mph - N/A   Clear
8:35 AM 14.2 °F 2.2 °F 10.6 °F 86% 30.28 in 10.0 mi WNW 9.2 mph - N/A   Clear
8:55 AM 15.3 °F 7.9 °F 11.3 °F 84% 30.28 in 10.0 mi WNW 4.6 mph - N/A   Clear
9:15 AM 16.5 °F 6.0 °F 12.2 °F 83% 30.28 in 10.0 mi WNW 8.1 mph - N/A   Clear
9:35 AM 17.4 °F 7.1 °F 12.9 °F 83% 30.28 in 10.0 mi WNW 8.1 mph - N/A   Clear
9:55 AM 19.0 °F 11.1 °F 14.0 °F 81% 30.27 in 10.0 mi WNW 5.8 mph - N/A   Clear
10:15 AM 20.8 °F 14.4 °F 15.4 °F 80% 30.28 in 10.0 mi WNW 4.6 mph - N/A   Clear
10:35 AM 22.6 °F 16.5 °F 16.7 °F 78% 30.28 in 10.0 mi West 4.6 mph - N/A   Clear
10:55 AM 24.1 °F 19.7 °F 17.6 °F 76% 30.27 in 10.0 mi WNW 3.5 mph - N/A   Clear
11:15 AM 25.7 °F - 18.7 °F 75% 30.26 in 10.0 mi Calm Calm - N/A   Clear
11:35 AM 27.1 °F - 19.2 °F 72% 30.25 in 10.0 mi Calm Calm - N/A   Clear
11:55 AM 31.5 °F 28.1 °F 21.4 °F 66% 30.24 in 10.0 mi South 3.5 mph - N/A   Clear
12:15 PM 35.1 °F 29.3 °F 20.7 °F 56% 30.22 in 10.0 mi SSW 6.9 mph - N/A   Clear
12:35 PM 37.4 °F 32.8 °F 21.2 °F 52% 30.20 in 10.0 mi South 5.8 mph - N/A   Clear
12:55 PM 38.3 °F 31.9 °F 21.0 °F 50% 30.20 in 10.0 mi SW 9.2 mph - N/A   Clear
1:15 PM 38.3 °F 31.4 °F 20.8 °F 50% 30.19 in 10.0 mi SW 10.4 mph - N/A   Clear
1:35 PM 38.5 °F 30.7 °F 20.7 °F 49% 30.18 in 10.0 mi SSW 12.7 mph - N/A   Clear
1:55 PM 38.3 °F 31.4 °F 21.4 °F 51% 30.17 in 10.0 mi SSW 10.4 mph - N/A   Clear
2:15 PM 37.8 °F 30.2 °F 19.8 °F 48% 30.17 in 10.0 mi SSW 11.5 mph - N/A   Clear
2:35 PM 38.3 °F 32.5 °F 20.8 °F 50% 30.16 in 10.0 mi SSW 8.1 mph - N/A   Clear
2:55 PM 38.3 °F 32.5 °F 21.0 °F 50% 30.15 in 10.0 mi South 8.1 mph - N/A   Clear
3:15 PM 38.7 °F 35.2 °F 20.3 °F 48% 30.15 in 10.0 mi South 4.6 mph - N/A   Clear
3:35 PM 38.3 °F 32.5 °F 21.6 °F 51% 30.14 in 10.0 mi South 8.1 mph - N/A   Clear
3:55 PM 37.8 °F 31.3 °F 22.3 °F 54% 30.13 in 10.0 mi South 9.2 mph - N/A   Clear
4:15 PM 36.5 °F 29.7 °F 23.5 °F 59% 30.12 in 10.0 mi SSE 9.2 mph - N/A   Clear
4:55 PM 33.8 °F 26.4 °F 22.6 °F 64% 30.11 in 10.0 mi SSE 9.2 mph - N/A   Clear
5:15 PM 31.8 °F 23.9 °F 22.1 °F 67% 30.11 in 10.0 mi SSE 9.2 mph - N/A   Clear
5:35 PM 29.8 °F 21.5 °F 21.6 °F 71% 30.10 in 10.0 mi SSE 9.2 mph - N/A   Clear
5:55 PM 28.9 °F 21.9 °F 21.2 °F 73% 30.08 in 10.0 mi SE 6.9 mph - N/A   Clear
6:15 PM 28.9 °F 21.1 °F 20.8 °F 72% 30.08 in 10.0 mi SE 8.1 mph - N/A   Clear
6:35 PM 28.4 °F 20.4 °F 21.0 °F 74% 30.07 in 10.0 mi SE 8.1 mph - N/A   Clear
6:55 PM 28.0 °F 20.8 °F 21.2 °F 76% 30.07 in 10.0 mi SE 6.9 mph - N/A   Clear
7:15 PM 27.3 °F 18.4 °F 20.7 °F 76% 30.06 in 10.0 mi ESE 9.2 mph - N/A   Clear
7:35 PM 27.1 °F 19.7 °F 21.2 °F 78% 30.06 in 10.0 mi ESE 6.9 mph - N/A   Clear
7:55 PM 27.3 °F 17.1 °F 22.1 °F 81% 30.06 in 10.0 mi SSE 11.5 mph - N/A   Clear
8:15 PM 30.2 °F 19.3 °F 23.9 °F 77% 30.04 in 10.0 mi South 15.0 mph - N/A   Clear
8:35 PM 30.7 °F 19.6 °F 24.1 °F 76% 30.03 in 10.0 mi South 16.1 mph - N/A   Clear
8:55 PM 30.2 °F 18.9 °F 23.9 °F 77% 30.03 in 10.0 mi South 16.1 mph - N/A   Clear
9:15 PM 30.0 °F 18.7 °F 23.9 °F 78% 30.03 in 10.0 mi South 16.1 mph - N/A   Clear
9:55 PM 29.7 °F 17.8 °F 23.9 °F 79% 30.02 in 10.0 mi South 17.3 mph - N/A   Clear
10:15 PM 29.3 °F 17.3 °F 23.9 °F 80% 30.00 in 10.0 mi South 17.3 mph - N/A   Clear
10:35 PM 29.1 °F 17.1 °F 23.9 °F 81% 29.99 in 10.0 mi South 17.3 mph - N/A   Clear
10:55 PM 29.3 °F 17.7 °F 24.3 °F 81% 29.99 in 10.0 mi South 16.1 mph - N/A   Clear
11:35 PM 28.8 °F 21.7 °F 23.9 °F 82% 29.98 in 10.0 mi South 6.9 mph - N/A   Clear
11:55 PM 27.7 °F 22.4 °F 23.2 °F 83% 29.98 in 10.0 mi SSE 4.6 mph - N/A   Clear